KD0QEO Weather Reports


time (UTC)temp
F
wind
direction
speed
knots
gust
knots
rain 1hr
in
rain 24hr
in
rain mn
in
humidity
%
barometer
mb
20260507104548 40 360 8.7 11.3 0.00 0.00 0.00 81 1012.6
20260507103049 40 360 7.8 12.2 0.00 0.00 0.00 80 1012.8
20260507101557 41 360 9.6 13.0 0.00 0.00 0.00 80 1013.0
20260507100050 41 360 10.4 13.9 0.00 0.00 0.00 79 1013.2
20260507094550 41 360 9.6 13.9 0.00 0.00 0.00 80 1013.2
20260507093049 41 360 8.7 13.0 0.00 0.00 0.00 81 1013.4
20260507091552 41 360 7.8 13.0 0.00 0.00 0.00 80 1013.4
20260507090047 41 360 9.6 13.9 0.00 0.00 0.00 80 1013.3
20260507084550 42 360 8.7 12.2 0.00 0.00 0.00 80 1013.3
20260507083051 42 360 9.6 13.9 0.00 0.00 0.00 79 1013.7
20260507081550 42 360 9.6 13.9 0.00 0.00 0.00 79 1013.9
20260507080053 42 360 11.3 16.5 0.00 0.00 0.00 79 1013.9
20260507074550 42 360 11.3 14.8 0.00 0.00 0.00 79 1014.3
20260507073121 43 360 10.4 14.8 0.00 0.00 0.00 78 1014.5
20260507071549 43 360 11.3 14.8 0.00 0.00 0.00 76 1014.9
20260507070051 43 360 10.4 15.6 0.00 0.00 0.00 76 1015.0
20260507064605 43 360 10.4 13.9 0.00 0.00 0.00 76 1015.3
20260507063059 43 360 9.6 12.2 0.00 0.00 0.00 74 1015.3
20260507061546 44 360 9.6 14.8 0.00 0.00 0.00 73 1015.3
20260507060046 44 360 10.4 14.8 0.00 0.00 0.00 72 1015.4
20260507054544 44 360 9.6 13.9 0.00 0.00 0.00 72 1015.6
20260507053050 45 360 10.4 15.6 0.00 0.00 0.00 70 1015.8
20260507051549 45 360 10.4 14.8 0.00 0.00 0.00 70 1015.6
20260507050053 44 360 9.6 13.0 0.00 0.00 0.00 69 1015.8
20260507044547 44 360 9.6 12.2 0.00 0.00 0.00 67 1016.0
20260507043051 45 360 9.6 13.9 0.00 0.00 0.00 63 1016.0
20260507041553 46 360 9.6 13.9 0.00 0.00 0.00 62 1016.2
20260507040103 46 360 8.7 13.0 0.00 0.00 0.00 62 1016.3
20260507034605 46 360 8.7 12.2 0.00 0.00 0.00 61 1016.3
20260507033104 46 360 7.8 11.3 0.00 0.00 0.00 61 1016.5
20260507031551 47 360 8.7 12.2 0.00 0.00 0.00 59 1016.4
20260507030054 47 360 7.8 12.2 0.00 0.00 0.00 59 1016.4
20260507024555 47 360 7.8 11.3 0.00 0.00 0.00 59 1016.6
20260507023054 47 360 6.1 10.4 0.00 0.00 0.00 58 1016.5
20260507021601 49 360 8.7 11.3 0.00 0.00 0.00 56 1016.4
20260507020055 51 360 7.8 11.3 0.00 0.00 0.00 54 1016.4
20260507014556 51 360 8.7 13.0 0.00 0.00 0.00 52 1016.3
20260507013109 53 360 12.2 18.2 0.00 0.00 0.00 50 1016.2
20260507011548 54 360 7.8 17.4 0.00 0.00 0.00 43 1016.0
20260507010055 55 360 12.2 16.5 0.00 0.00 0.00 42 1016.1
20260507004547 56 360 9.6 13.9 0.00 0.00 0.00 39 1016.0
20260507003057 57 360 6.1 13.9 0.00 0.00 0.00 40 1016.0
20260507001611 57 360 11.3 14.8 0.00 0.00 0.00 40 1016.1
20260507000051 57 360 12.2 18.2 0.00 0.00 0.00 39 1016.4
20260506234600 58 360 11.3 25.2 0.00 0.00 0.00 38 1016.4
20260506233053 57 360 9.6 18.2 0.00 0.00 0.00 37 1016.3
20260506231552 58 360 10.4 20.0 0.00 0.00 0.00 35 1016.5
20260506230045 59 360 13.0 20.0 0.00 0.00 0.00 32 1016.3
20260506224604 58 360 13.0 18.2 0.00 0.00 0.00 30 1016.5
20260506223054 58 360 7.8 14.8 0.00 0.00 0.00 31 1016.4
20260506221549 58 360 11.3 18.2 0.00 0.00 0.00 30 1016.5
20260506214551 58 360 7.8 18.2 0.00 0.00 0.00 29 1016.9
20260506213049 60 360 11.3 16.5 0.00 0.00 0.00 29 1016.9
20260506211556 57 360 8.7 18.2 0.00 0.00 0.00 31 1017.1
20260506210050 56 360 1.7 11.3 0.00 0.00 0.00 34 1017.5
20260506204549 57 360 9.6 13.9 0.00 0.00 0.00 30 1017.7
20260506203057 57 360 6.1 12.2 0.00 0.00 0.00 30 1017.8
20260506201552 56 360 8.7 16.5 0.00 0.00 0.00 30 1018.0
20260506200051 58 360 10.4 16.5 0.00 0.00 0.00 29 1018.1
20260506194554 59 360 9.6 18.2 0.00 0.00 0.00 29 1018.2
20260506193059 58 360 7.0 14.8 0.00 0.00 0.00 30 1018.2
20260506191552 56 360 4.3 17.4 0.00 0.00 0.00 31 1018.4
20260506190059 56 360 9.6 18.2 0.00 0.00 0.00 30 1018.5
20260506184550 55 360 4.3 10.4 0.00 0.00 0.00 32 1018.7
20260506183103 55 360 7.8 16.5 0.00 0.00 0.00 31 1018.9
20260506181620 56 360 7.0 14.8 0.00 0.00 0.00 32 1019.0
20260506180051 54 360 7.0 11.3 0.00 0.00 0.00 32 1019.3
20260506174551 56 360 9.6 14.8 0.00 0.00 0.00 31 1019.4
20260506173121 55 360 4.3 13.0 0.00 0.00 0.00 32 1019.4
20260506171555 53 360 1.7 12.2 0.00 0.00 0.00 34 1019.6
20260506170057 53 360 8.7 13.0 0.00 0.00 0.00 33 1019.5
20260506164547 55 360 4.3 11.3 0.00 0.00 0.00 36 1019.3
20260506163048 52 360 2.6 12.2 0.00 0.00 0.00 35 1019.4
20260506161550 53 360 8.7 13.9 0.00 0.00 0.00 35 1019.6
20260506160059 52 360 7.0 12.2 0.00 0.00 0.00 33 1019.7
20260506154554 51 360 2.6 8.7 0.00 0.00 0.00 36 1019.7
20260506153046 51 360 2.6 11.3 0.00 0.00 0.00 38 1019.7
20260506151550 51 360 2.6 8.7 0.00 0.00 0.00 37 1019.7
20260506150050 49 360 0.9 4.3 0.00 0.00 0.00 40 1019.6
20260506144550 49 360 0.9 4.3 0.00 0.00 0.00 39 1019.6
20260506143048 49 360 1.7 4.3 0.00 0.00 0.00 38 1019.5
20260506141555 48 0 0.0 2.6 0.00 0.00 0.00 43 1019.5
20260506140051 46 0 0.0 3.5 0.00 0.00 0.00 47 1019.4
20260506134554 45 360 0.9 3.5 0.00 0.00 0.00 54 1019.5
20260506133058 44 360 1.7 4.3 0.00 0.00 0.00 54 1019.4
20260506131558 43 360 2.6 3.5 0.00 0.00 0.00 57 1019.3
20260506130057 42 360 1.7 3.5 0.00 0.00 0.00 63 1019.0
20260506124555 41 360 1.7 3.5 0.00 0.00 0.00 65 1018.8
20260506123057 40 360 0.9 2.6 0.00 0.00 0.00 69 1018.6
20260506121551 39 0 0.0 0.9 0.00 0.00 0.00 71 1018.4
20260506120053 38 0 0.0 1.7 0.00 0.00 0.00 73 1018.1
20260506114553 38 0 0.0 1.7 0.00 0.00 0.00 74 1018.0
20260506113050 38 360 0.9 1.7 0.00 0.00 0.00 72 1017.9
20260506111549 38 360 0.0 0.0 0.00 0.00 0.00 73 1017.8
20260506110047 38 0 0.0 0.0 0.00 0.00 0.00 69 1017.6